Elmira, NY

7:07 PM EST on December 15, 2019 (GMT -0500)
Elmira-Corning Regional

Weather History for KELM - October, 2019

Change the Weather History Date:

Wednesday, October 9, 2019

  Actual Average Record
Temperature  
Mean Temperature 50 °F -  
Max Temperature 66 °F 63 °F 89 °F (1949)
Min Temperature 37 °F 39 °F 19 °F (2001)
Degree Days  
Heating Degree Days 14    
Moisture  
Dew Point 41 °F    
Average Humidity 92    
Maximum Humidity 100    
Minimum Humidity 42    
Precipitation  
Precipitation 0.00 in - - ()
Sea Level Pressure  
Sea Level Pressure 30.32 in    
Wind  
Wind Speed 2 mph (NW)    
Max Wind Speed 12 mph    
Max Gust Speed -    
Visibility 4 miles    
Events Fog    
Averages and records for this station are not official NWS values.
T = Trace of Precipitation, MM = Missing Value Source: NWS Daily Summary

Daily Weather History Graph

Daily Weather History Graph

Search for Another Location

Airport or City:

Astronomy

Oct. 09, 2019 Rise Set
Actual Time 7:13 AM EDT 6:35 PM EDT
Civil Twilight 6:45 AM EDT 7:03 PM EDT
Nautical Twilight 6:12 AM EDT 7:36 PM EDT
Astronomical Twilight 5:40 AM EDT 8:08 PM EDT
Moon 5:12 PM EDT (10/9) 2:51 AM EDT (10/9)
Length of Visible Light 12h 18m
Length of Day
11h 22m
Waxing Gibbous, 85% of the Moon is Illuminated
Oct 9
Waxing Gibbous
Oct 13
Full
Oct 21
Last Quarter
Oct 27
New
Nov 4
First Quarter

Hourly Weather History & Observations

Time (EDT) Temp. Windchill Dew Point Humidity Pressure Visibility Wind Dir Wind Speed Gust Speed Precip Events Conditions
12:05 AM 39.0 °F 36.8 °F 39.0 °F 100% 30.31 in 2.0 mi West 3.5 mph - N/A   Partly Cloudy
12:10 AM 39.0 °F 36.8 °F 37.9 °F 96% 30.31 in 1.0 mi West 3.5 mph - N/A   Mist
12:18 AM 37.9 °F - 37.9 °F 100% 30.30 in 0.5 mi Calm Calm - N/A Fog Fog
12:28 AM 39.9 °F - 39.0 °F 97% 30.30 in 1.2 mi Calm Calm - N/A   Partly Cloudy
12:43 AM 39.0 °F - 39.0 °F 100% 30.30 in 1.5 mi Calm Calm - N/A   Scattered Clouds
12:46 AM 39.0 °F - 37.9 °F 96% 30.30 in 0.8 mi Calm Calm - N/A   Mist
12:53 AM 39.0 °F - 37.9 °F 96% 30.31 in 0.8 mi Calm Calm - N/A   Mist
12:59 AM 37.9 °F - 37.9 °F 100% 30.30 in 1.2 mi Calm Calm - N/A   Scattered Clouds
1:09 AM 39.0 °F - 37.9 °F 96% 30.30 in 3.0 mi Calm Calm - N/A   Partly Cloudy
1:37 AM 37.9 °F - 37.0 °F 97% 30.30 in 2.5 mi Calm Calm - N/A   Mostly Cloudy
1:45 AM 37.9 °F - 37.0 °F 97% 30.30 in 10.0 mi Calm Calm - N/A   Mostly Cloudy
1:53 AM 37.9 °F - 37.9 °F 100% 30.31 in 10.0 mi Calm Calm - N/A   Mostly Cloudy
2:02 AM 37.9 °F - 37.9 °F 100% 30.30 in 1.5 mi Calm Calm - N/A   Overcast
2:25 AM 39.0 °F - 39.0 °F 100% 30.30 in 0.2 mi Calm Calm - N/A Fog Fog
2:53 AM 39.9 °F - 39.0 °F 97% 30.31 in 0.2 mi Calm Calm - N/A Fog Fog
3:01 AM 41.0 °F 39.0 °F 41.0 °F 100% 30.30 in 0.2 mi West 3.5 mph - N/A Fog Fog
3:39 AM 41.0 °F 39.0 °F 41.0 °F 100% 30.30 in 0.2 mi West 3.5 mph - N/A Fog Fog
4:03 AM 42.1 °F - 42.1 °F 100% 30.30 in 0.2 mi Calm Calm - N/A Fog Fog
4:24 AM 41.0 °F - 41.0 °F 100% 30.30 in 0.2 mi Calm Calm - N/A Fog Fog
4:53 AM 42.1 °F 39.2 °F 42.1 °F 100% 30.32 in 0.2 mi West 4.6 mph - N/A Fog Fog
5:16 AM 42.1 °F 39.2 °F 42.1 °F 100% 30.31 in 0.5 mi West 4.6 mph - N/A Fog Fog
5:44 AM 42.1 °F 39.2 °F 42.1 °F 100% 30.31 in 0.2 mi WSW 4.6 mph - N/A Fog Fog
5:53 AM 42.1 °F - 42.1 °F 100% 30.32 in 0.2 mi Calm Calm - N/A Fog Fog
6:16 AM 42.1 °F 40.2 °F 42.1 °F 100% 30.32 in 0.5 mi West 3.5 mph - N/A Fog Fog
6:49 AM 42.8 °F 41.1 °F 42.8 °F 100% 30.32 in 0.2 mi Variable 3.5 mph - N/A Fog Fog
6:53 AM 42.1 °F 39.2 °F 42.1 °F 100% 30.34 in 0.2 mi West 4.6 mph - N/A Fog Fog
7:53 AM 42.1 °F 40.2 °F 42.1 °F 100% 30.36 in 0.2 mi WSW 3.5 mph - N/A Fog Fog
8:53 AM 43.0 °F - 43.0 °F 100% 30.37 in 0.2 mi Calm Calm - N/A Fog Fog
9:46 AM 44.1 °F - 44.1 °F 100% 30.36 in 0.5 mi Calm Calm - N/A Fog Fog
9:53 AM 44.1 °F - 44.1 °F 100% 30.38 in 0.8 mi Calm Calm - N/A   Overcast
10:10 AM 45.0 °F - 45.0 °F 100% 30.36 in 2.5 mi Calm Calm - N/A   Overcast
10:17 AM 46.0 °F - 45.0 °F 96% 30.36 in 6.0 mi Calm Calm - N/A   Overcast
10:46 AM 46.9 °F - 46.0 °F 97% 30.36 in 10.0 mi Calm Calm - N/A   Scattered Clouds
10:53 AM 46.9 °F - 46.0 °F 97% 30.38 in 10.0 mi Calm Calm - N/A   Scattered Clouds
11:53 AM 53.1 °F - 46.0 °F 77% 30.36 in 10.0 mi Calm Calm - N/A   Clear
12:53 PM 59.0 °F - 45.0 °F 60% 30.33 in 10.0 mi Calm Calm - N/A   Clear
1:53 PM 62.1 °F - 45.0 °F 53% 30.30 in 10.0 mi NNE 4.6 mph - N/A   Clear
2:53 PM 64.0 °F - 44.1 °F 48% 30.28 in 10.0 mi Variable 4.6 mph - N/A   Clear
3:53 PM 64.9 °F - 41.0 °F 42% 30.26 in 10.0 mi NE 6.9 mph - N/A   Clear
4:53 PM 64.9 °F - 43.0 °F 45% 30.26 in 10.0 mi NE 10.4 mph - N/A   Clear
5:53 PM 62.1 °F - 46.0 °F 56% 30.27 in 10.0 mi ENE 11.5 mph - N/A   Clear
6:53 PM 51.1 °F - 45.0 °F 80% 30.29 in 10.0 mi NNE 5.8 mph - N/A   Clear
7:53 PM 52.0 °F - 46.0 °F 80% 30.30 in 10.0 mi ENE 5.8 mph - N/A   Clear
8:53 PM 46.0 °F - 45.0 °F 96% 30.31 in 10.0 mi Calm Calm - N/A   Clear
9:53 PM 44.1 °F - 42.1 °F 93% 30.32 in 10.0 mi Calm Calm - N/A   Clear
10:23 PM 42.1 °F - 41.0 °F 96% 30.31 in 1.8 mi Calm Calm - N/A   Clear
10:33 PM 42.1 °F - 41.0 °F 96% 30.31 in 0.5 mi Calm Calm - N/A Fog Fog
10:40 PM 42.1 °F - 41.0 °F 96% 30.31 in 2.0 mi Calm Calm - N/A   Clear
10:53 PM 42.1 °F - 41.0 °F 96% 30.33 in 3.0 mi Calm Calm - N/A   Clear
11:05 PM 42.1 °F - 41.0 °F 96% 30.31 in 4.0 mi Calm Calm - N/A   Clear
11:37 PM 41.0 °F - 39.9 °F 96% 30.31 in 1.2 mi Calm Calm - N/A   Clear
11:49 PM 39.2 °F - 39.2 °F 100% 30.31 in 0.8 mi Calm Calm - N/A   Clear
11:53 PM 37.9 °F - 37.9 °F 100% 30.33 in 1.0 mi Calm Calm - N/A   Clear
11:56 PM 39.0 °F - 37.9 °F 96% 30.31 in 3.0 mi Calm Calm - N/A   Clear